When you browse on this site, cookies collect data to enhance your experience and personalize the content and advertising you see.
Visit our Privacy Policy to learn more. By continuing to use the site, you agree to this use of cookies and data.
  • In Czech Republic
  • List of Countries
  • For 7 days
  • Water Temperature
  • Satellite Maps
  • Weather Map
  • Weather Widgets
  • user-avatar
    Login

    Hourly Weather Quelimane

    Today, 18 June, Tuesday

    Time Temperature Precipitation Wind Pressure Humidity
    00:00 +22°C° 0.2 mm 1 mps 766 mmHg 94%
    01:00 +22°C° 0.2 mm 1 mps 766 mmHg 94%
    02:00 +22°C° 0.2 mm 1 mps 766 mmHg 94%
    03:00 +22°C° 0.4 mm 1 mps 765 mmHg 94%
    04:00 +22°C° 0.4 mm 1 mps 765 mmHg 95%
    05:00 +21°C° 0.4 mm 1 mps 765 mmHg 95%
    06:00 +22°C° 0.2 mm 1 mps 766 mmHg 94%
    07:00 +22°C° 0.2 mm 1 mps 766 mmHg 94%
    08:00 +22°C° 0.2 mm 1 mps 766 mmHg 93%
    09:00 +23°C° 0.2 mm 1 mps 766 mmHg 89%
    10:00 +24°C° 0.2 mm 2 mps 766 mmHg 84%
    11:00 +26°C° 0.2 mm 2 mps 766 mmHg 80%
    12:00 +26°C° 0.1 mm 3 mps 766 mmHg 77%
    13:00 +26°C° 0.1 mm 3 mps 765 mmHg 73%
    14:00 +27°C° 0.1 mm 3 mps 765 mmHg 70%
    15:00 +26°C° 0.1 mm 3 mps 765 mmHg 75%
    16:00 +25°C° 0.1 mm 3 mps 765 mmHg 80%
    17:00 +22°C° 0.1 mm 3 mps 765 mmHg 86%
    18:00 +22°C° 0.1 mm 3 mps 765 mmHg 87%
    19:00 +23°C° 0.1 mm 2 mps 766 mmHg 88%
    20:00 +21°C° 0.1 mm 2 mps 766 mmHg 89%
    21:00 +21°C° 0 mm 2 mps 766 mmHg 90%
    22:00 +21°C° 0 mm 2 mps 766 mmHg 91%
    23:00 +20°C° 0 mm 2 mps 766 mmHg 92%

    Tomorrow, 19 June, Wednesday

    Time Temperature Precipitation Wind Pressure Humidity
    00:00 +20°C° 0 mm 2 mps 766 mmHg 92%
    01:00 +20°C° 0 mm 2 mps 766 mmHg 93%
    02:00 +19°C° 0 mm 2 mps 766 mmHg 93%
    03:00 +19°C° 0 mm 2 mps 766 mmHg 93%
    04:00 +19°C° 0 mm 2 mps 766 mmHg 92%
    05:00 +19°C° 0 mm 2 mps 766 mmHg 92%
    06:00 +20°C° 0 mm 3 mps 766 mmHg 88%
    07:00 +21°C° 0 mm 3 mps 767 mmHg 84%
    08:00 +21°C° 0 mm 3 mps 767 mmHg 80%
    09:00 +24°C° 0.1 mm 3 mps 767 mmHg 76%
    10:00 +25°C° 0.1 mm 4 mps 767 mmHg 71%
    11:00 +26°C° 0.1 mm 4 mps 767 mmHg 66%
    12:00 +25°C° 0.4 mm 4 mps 766 mmHg 74%
    13:00 +23°C° 0.4 mm 4 mps 766 mmHg 81%
    14:00 +21°C° 0.4 mm 4 mps 765 mmHg 89%
    15:00 +21°C° 0.4 mm 4 mps 765 mmHg 90%
    16:00 +21°C° 0.4 mm 4 mps 765 mmHg 90%
    17:00 +21°C° 0.4 mm 4 mps 765 mmHg 91%
    18:00 +20°C° 0.3 mm 4 mps 765 mmHg 91%
    19:00 +20°C° 0.3 mm 3 mps 766 mmHg 90%
    20:00 +20°C° 0.3 mm 3 mps 766 mmHg 90%
    21:00 +20°C° 0.1 mm 3 mps 766 mmHg 90%
    22:00 +19°C° 0.1 mm 3 mps 766 mmHg 90%
    23:00 +19°C° 0.1 mm 3 mps 766 mmHg 91%

    Day after tomorrow, 20 June, Thursday

    Time Temperature Precipitation Wind Pressure Humidity
    00:00 +19°C° 0.1 mm 3 mps 766 mmHg 91%
    01:00 +18°C° 0.1 mm 3 mps 765 mmHg 92%
    02:00 +18°C° 0.1 mm 3 mps 765 mmHg 93%
    03:00 +18°C° 0.4 mm 3 mps 765 mmHg 93%
    04:00 +19°C° 0.4 mm 3 mps 765 mmHg 92%
    05:00 +19°C° 0.4 mm 3 mps 765 mmHg 92%
    06:00 +19°C° 0.1 mm 3 mps 765 mmHg 92%
    07:00 +19°C° 0.1 mm 3 mps 766 mmHg 91%
    08:00 +20°C° 0.1 mm 4 mps 766 mmHg 91%
    09:00 +21°C° 0.1 mm 4 mps 766 mmHg 85%
    10:00 +22°C° 0.1 mm 4 mps 766 mmHg 80%
    11:00 +23°C° 0.1 mm 4 mps 765 mmHg 74%
    12:00 +22°C° 0.7 mm 4 mps 765 mmHg 80%
    13:00 +21°C° 0.7 mm 4 mps 764 mmHg 86%
    14:00 +21°C° 0.7 mm 4 mps 764 mmHg 92%
    15:00 +20°C° 0.4 mm 4 mps 764 mmHg 92%
    16:00 +20°C° 0.4 mm 4 mps 764 mmHg 92%
    17:00 +20°C° 0.4 mm 3 mps 764 mmHg 93%
    18:00 +19°C° 0.1 mm 3 mps 764 mmHg 93%
    19:00 +19°C° 0.1 mm 3 mps 765 mmHg 94%
    20:00 +19°C° 0.1 mm 2 mps 765 mmHg 95%
    21:00 +19°C° 0.5 mm 2 mps 765 mmHg 95%
    22:00 +19°C° 0.5 mm 2 mps 765 mmHg 95%
    23:00 +19°C° 0.5 mm 2 mps 764 mmHg 95%

    21 June, Friday

    Time Temperature Precipitation Wind Pressure Humidity
    00:00 +19°C° 0.6 mm 2 mps 764 mmHg 96%
    01:00 +19°C° 0.6 mm 2 mps 764 mmHg 96%
    02:00 +18°C° 0.6 mm 2 mps 763 mmHg 96%
    03:00 +18°C° 0.4 mm 2 mps 763 mmHg 96%
    04:00 +18°C° 0.4 mm 2 mps 763 mmHg 95%
    05:00 +18°C° 0.4 mm 2 mps 763 mmHg 95%
    06:00 +19°C° 0.3 mm 2 mps 764 mmHg 95%
    07:00 +19°C° 0.3 mm 2 mps 764 mmHg 94%
    08:00 +20°C° 0.3 mm 2 mps 765 mmHg 94%
    09:00 +21°C° 0.3 mm 2 mps 765 mmHg 92%
    10:00 +23°C° 0.3 mm 2 mps 764 mmHg 89%
    11:00 +22°C° 0.3 mm 3 mps 764 mmHg 87%
    12:00 +24°C° 0.3 mm 3 mps 764 mmHg 85%
    13:00 +24°C° 0.3 mm 3 mps 763 mmHg 83%
    14:00 +25°C° 0.3 mm 3 mps 763 mmHg 80%
    15:00 +24°C° 0.4 mm 2 mps 763 mmHg 84%
    16:00 +23°C° 0.4 mm 2 mps 763 mmHg 87%
    17:00 +21°C° 0.4 mm 2 mps 762 mmHg 90%
    18:00 +21°C° 0 mm 2 mps 763 mmHg 92%
    19:00 +20°C° 0 mm 2 mps 763 mmHg 93%
    20:00 +20°C° 0 mm 2 mps 763 mmHg 95%
    21:00 +19°C° 0 mm 2 mps 763 mmHg 95%
    22:00 +20°C° 0 mm 1 mps 763 mmHg 95%
    23:00 +20°C° 0 mm 1 mps 763 mmHg 95%

    22 June, Saturday

    Time Temperature Precipitation Wind Pressure Humidity
    00:00 +20°C° 0 mm 1 mps 762 mmHg 96%
    01:00 +20°C° 0 mm 1 mps 762 mmHg 96%
    02:00 +19°C° 0 mm 1 mps 762 mmHg 97%
    03:00 +19°C° 0.1 mm 1 mps 762 mmHg 97%
    04:00 +18°C° 0.1 mm 2 mps 762 mmHg 97%
    05:00 +18°C° 0.1 mm 2 mps 762 mmHg 98%
    06:00 +19°C° 0 mm 2 mps 762 mmHg 96%
    07:00 +20°C° 0 mm 2 mps 763 mmHg 95%
    08:00 +21°C° 0 mm 2 mps 763 mmHg 94%
    09:00 +23°C° 0.5 mm 2 mps 763 mmHg 91%
    10:00 +24°C° 0.5 mm 2 mps 763 mmHg 88%
    11:00 +25°C° 0.5 mm 2 mps 762 mmHg 84%
    12:00 +25°C° 0.6 mm 2 mps 762 mmHg 85%
    13:00 +25°C° 0.6 mm 2 mps 762 mmHg 85%
    14:00 +25°C° 0.6 mm 2 mps 761 mmHg 85%
    15:00 +24°C° 0.3 mm 2 mps 762 mmHg 87%
    16:00 +24°C° 0.3 mm 2 mps 762 mmHg 88%
    17:00 +23°C° 0.3 mm 2 mps 762 mmHg 90%
    18:00 +21°C° 0 mm 2 mps 762 mmHg 91%
    19:00 +21°C° 0 mm 2 mps 763 mmHg 92%
    20:00 +21°C° 0 mm 2 mps 763 mmHg 93%
    21:00 +20°C° 0.2 mm 2 mps 763 mmHg 94%
    22:00 +20°C° 0.2 mm 2 mps 763 mmHg 94%
    23:00 +20°C° 0.2 mm 2 mps 763 mmHg 94%

    23 June, Sunday

    Time Temperature Precipitation Wind Pressure Humidity
    00:00 +20°C° 0.5 mm 2 mps 763 mmHg 95%
    01:00 +20°C° 0.5 mm 2 mps 763 mmHg 95%
    02:00 +20°C° 0.5 mm 3 mps 763 mmHg 95%
    03:00 +20°C° 0.9 mm 3 mps 763 mmHg 95%
    04:00 +20°C° 0.9 mm 3 mps 763 mmHg 95%
    05:00 +20°C° 0.9 mm 2 mps 763 mmHg 96%
    06:00 +21°C° 0.4 mm 3 mps 764 mmHg 94%
    07:00 +21°C° 0.4 mm 3 mps 764 mmHg 93%
    08:00 +22°C° 0.4 mm 3 mps 765 mmHg 92%
    09:00 +22°C° 1.2 mm 4 mps 765 mmHg 91%
    10:00 +22°C° 1.3 mm 5 mps 765 mmHg 90%
    11:00 +23°C° 1.3 mm 6 mps 765 mmHg 89%
    12:00 +22°C° 1.2 mm 6 mps 765 mmHg 89%
    13:00 +22°C° 1.2 mm 6 mps 765 mmHg 89%
    14:00 +22°C° 1.2 mm 6 mps 765 mmHg 89%
    15:00 +21°C° 0.5 mm 5 mps 765 mmHg 89%
    16:00 +21°C° 0.5 mm 5 mps 765 mmHg 89%
    17:00 +20°C° 0.5 mm 5 mps 765 mmHg 89%
    18:00 +20°C° 0.1 mm 4 mps 766 mmHg 88%
    19:00 +19°C° 0.1 mm 4 mps 766 mmHg 86%
    20:00 +19°C° 0.1 mm 4 mps 766 mmHg 85%
    21:00 +19°C° 0.1 mm 3 mps 766 mmHg 86%
    22:00 +19°C° 0.1 mm 3 mps 767 mmHg 88%
    23:00 +19°C° 0.1 mm 3 mps 767 mmHg 90%
    Show more